Regional Weather Roundup
Issued by NWS Memphis, TN

Home | Current Version | Previous Version | Text Only | Print | Product List | Glossary On
Versions: 1 2 3 4 5 6 7 8 9 10 11 12 13 14 15 16 17 18 19 20 21 22 23 24 25 26 27 28 29 30 31 32 33 34 35 36 37 38 39 40 41 42 43 44 45 46 47 48 49 50
379
ASUS44 KMEG 270110
RWRMEG
MEMPHIS CWA HOURLY WEATHER ROUNDUP
NATIONAL WEATHER SERVICE MEMPHIS TN
800 PM CDT MON SEP 26 2016

...WEST TENNESSEE...

CITY           SKY/WX    TMP DP  RH WIND       PRES   REMARKS
MEMPHIS INTL   PTCLDY    68  52  56 N10       30.08R
NWS MEMPHIS      N/A     66 N/A N/A MISG        N/A
JACKSON        CLOUDY   N/A N/A N/A N7        30.10R
BOLIVAR        PTCLDY    64  63  94 CALM      30.08R
LEXINGTON      PTCLDY    63  61  94 N3        30.09R
DYERSBURG      CLEAR    N/A N/A N/A MISG        N/A
UNION CITY     CLEAR     61  55  82 CALM      30.09R
PARIS          CLEAR     55  54  94 CALM      30.11R
HUNTINGDON     CLEAR     59  55  88 CALM      30.09R


...EASTERN ARKANSAS...

CITY           SKY/WX    TMP DP  RH WIND       PRES   REMARKS
JONESBORO      CLEAR     61  56  83 CALM      30.10R
WEST MEMPHIS   CLEAR     64  52  64 N5        30.08R
BATESVILLE     CLEAR     63  52  67 N3        30.12R
NEWPORT        CLEAR     67  57  70 N3        30.11R
WALNUT RIDGE   CLEAR     64  54  68 NW6       30.10R
BLYTHEVILLE    CLEAR     63  56  78 CALM      30.10R
SEARCY         CLEAR     62  58  86 CALM      30.12R
STUTTGART      CLEAR     64  52  63 N6        30.10R
PINE BLUFF     CLEAR     67  53  61 N7        30.09R
MONTICELLO     PTCLDY    69  56  62 VRB5      30.08R


...NORTH MISSISSIPPI...

CITY           SKY/WX    TMP DP  RH WIND       PRES   REMARKS
TUPELO         PTCLDY    72  61  68 N16       30.03R
OXFORD         PTCLDY    66  57  72 N7        30.09R
BATESVILLE     CLEAR     68  60  75 CALM      30.07R
OLIVE BRANCH   PTCLDY   N/A N/A N/A N7        30.07R
TUNICA         CLEAR     64  50  59 N8        30.08R
CLARKSDALE       N/A     68  57  68 N7        30.07R
CORINTH        PTCLDY    66  59  77 N3        30.07R
GREENWOOD      MOCLDY    74  60  61 N8        30.03R
COLUMBUS       CLOUDY    79  67  66 N10       29.98R
STARKVILLE     CLEAR     79  66  65 N3        29.99S
GOLDEN TRIANGL CLEAR     79  63  57 N9        29.98


...SOUTHEAST MISSOURI...

CITY           SKY/WX    TMP DP  RH WIND       PRES   REMARKS
KENNETT        CLEAR     64  61  88 CALM      30.09R
WEST PLAINS    CLEAR     57  48  72 NW3       30.16S
POPLAR BLUFF   CLEAR     62  56  80 CALM      30.11R


...NORTHWEST ALABAMA...

CITY           SKY/WX    TMP DP  RH WIND       PRES   REMARKS
MUSCLE SHOALS  CLOUDY    72  63  73 N7        30.05R


...MIDDLE TENNESSEE...

CITY           SKY/WX    TMP DP  RH WIND       PRES   REMARKS
NASHVILLE      CLOUDY    65  59  81 N6        30.09R
CLARKSVILLE    CLEAR     60  54  80 N3        30.09R
COLUMBIA       PTCLDY   N/A N/A N/A N3        30.07R


...WESTERN KENTUCKY...

CITY           SKY/WX    TMP DP  RH WIND       PRES   REMARKS
PADUCAH        CLEAR     57  53  86 CALM      30.09R
FORT CAMPBELL  CLEAR     60  55  83 CALM      30.09R


...CENTRAL ARKANSAS...

CITY           SKY/WX    TMP DP  RH WIND       PRES   REMARKS
LITTLE ROCK    PTCLDY    71  54  54 NE3       30.10R


SKY/WX REPORTED AS FAIR MEANS FEW OR NO CLOUDS BELOW
12 THOUSAND FEET.





USA.gov is the U.S. government's official web portal to all federal, state and local government web resources and services.